Location: Góry Miechowskie
(50.3599°N, 20.1803°E)
Time: 07:25:52
(UTC+00:00)

A-11 Canister half - Pass Details

Date: 17 September 2024
Orbit: 1515 x 1684 km, 47.2° (Epoch: 05 October)

Event Time Altitude Azimuth Distance (km) Brightness Sun altitude
Rises 19:45:56 0° 268° (W) 4,699 12.2 -26.8°
Reaches altitude 10° 19:49:00 10° 266° (W) 3,702 11.5 -27.1°
Maximum altitude 19:58:15 74° 184° (S) 1,569 8.8 -28.2°
Enters shadow 20:00:41 53° 118° (ESE) 1,801 8.9 -28.5°
Drops below altitude 10° 20:07:28 10° 102° (ESE) 3,684 - -29.2°
Sets 20:10:30 0° 101° (E) 4,675 - -29.5°
